Regional Weather Roundup
Issued by NWS Memphis, TN

Home | Current Version | Previous Version | Text Only | Print | Product List | Glossary On
Versions: 1 2 3 4 5 6 7 8 9 10 11 12 13 14 15 16 17 18 19 20 21 22 23 24 25 26 27 28 29 30 31 32 33 34 35 36 37 38 39 40 41 42 43 44 45 46 47 48 49 50
000
ASUS44 KMEG 022110
RWRMEG
MEMPHIS CWA HOURLY WEATHER ROUNDUP
NATIONAL WEATHER SERVICE MEMPHIS TN
400 PM CDT THU JUL 02 2015

...WEST TENNESSEE...

CITY           SKY/WX    TMP DP  RH WIND       PRES   REMARKS
MEMPHIS INTL   PTSUNNY   86  70  58 SW13G20   29.88F HX  90
NWS MEMPHIS      N/A     85 N/A N/A MISG        N/A
JACKSON        PTSUNNY   84  71  65 SW15      29.87F
LEXINGTON      MOSUNNY   82  72  69 SW13      29.87S
DYERSBURG        N/A    N/A N/A N/A MISG        N/A
PARIS          CLOUDY    82  73  74 SW9       29.85F


...EASTERN ARKANSAS...

CITY           SKY/WX    TMP DP  RH WIND       PRES   REMARKS
JONESBORO      PTSUNNY   86  74  67 SW12      29.84F HX  94
WEST MEMPHIS   PTSUNNY   87  72  60 SW8G20    29.86S HX  93
BATESVILLE     PTSUNNY   88  73  62 SW12      29.84F HX  96
NEWPORT        MOSUNNY   90  75  61 W13       29.84F HX 100
WALNUT RIDGE   MOSUNNY   86  73  66 SW10      29.83F HX  93
BLYTHEVILLE    CLOUDY    82  72  71 SW10G21   29.86S
SEARCY         PTSUNNY   90  73  57 W12       29.86F HX  98
STUTTGART      PTSUNNY   88  68  51 MISG      29.88S HX  91
PINE BLUFF     MOSUNNY   89  71  55 SW10      29.90F HX  95
MONTICELLO     MOSUNNY   87  71  58 SW12G21   29.93F HX  93


...NORTH MISSISSIPPI...

CITY           SKY/WX    TMP DP  RH WIND       PRES   REMARKS
TUPELO         CLOUDY    83  71  67 W9        29.93S
OLIVE BRANCH   PTSUNNY   84  75  74 SW13      29.89F HX  92
TUNICA         MOSUNNY   90  70  51 SW20G28   29.90S HX  95
CLARKSDALE     MOSUNNY   86  73  66 SW16      29.92S HX  93
CORINTH        CLOUDY    84  70  61 SW13      29.89F
GREENWOOD      CLOUDY    86  72  62 SW18G24   29.94F HX  92
COLUMBUS       CLOUDY    85  72  65 SW14G20   29.95S HX  91
STARKVILLE     FAIR      82  72  69 SW6       29.97S
GOLDEN TRIANGL MOSUNNY   82  70  65 SW12G18   29.96F


...SOUTHEAST MISSOURI...

CITY           SKY/WX    TMP DP  RH WIND       PRES   REMARKS
WEST PLAINS    CLOUDY    83  72  69 NW5       29.87F
POPLAR BLUFF   CLOUDY    83  70  64 NW3       29.82F
CAPE GIRARDEAU CLOUDY    80  73  79 N9        29.84S


...NORTHWEST ALABAMA...

CITY           SKY/WX    TMP DP  RH WIND       PRES   REMARKS
MUSCLE SHOALS  MOSUNNY   84  68  58 W15       29.93F


...MIDDLE TENNESSEE...

CITY           SKY/WX    TMP DP  RH WIND       PRES   REMARKS
NASHVILLE      PTSUNNY   80  74  81 S13       29.87F
CLARKSVILLE    CLOUDY    76  71  85 VRB5      29.84F
COLUMBIA       PTSUNNY   82  73  74 SW10      29.88S


...WESTERN KENTUCKY...

CITY           SKY/WX    TMP DP  RH WIND       PRES   REMARKS
PADUCAH        MOSUNNY   84  71  65 W13       29.83R
FORT CAMPBELL  CLOUDY    77  73  87 SW9       29.84F


...CENTRAL ARKANSAS...

CITY           SKY/WX    TMP DP  RH WIND       PRES   REMARKS
LITTLE ROCK    MOSUNNY   91  65  41 W20G29    29.87F HX  93


SKY/WX REPORTED AS FAIR MEANS FEW OR NO CLOUDS BELOW
12 THOUSAND FEET.



USA.gov is the U.S. government's official web portal to all federal, state and local government web resources and services.